Date String (YYYY-MM-DD hh:mm:ss) UTC,Instrument flags,absolute air pressure of the measurement (hPa),sample flow rate (lpm),inlet stack bypass flow (lpm),air temperature of the measurement (°C),ambient temperature measured by the external sensor (°C),aerosol sample conditioner tube jacket temperature (°C),OPC LED temperature (°C),internal box temperature (°C),relative humidity of the measurement (%),span deviation,mass concentration of particles derived from Lorenz-Mie calculation of OPC scattering (μg/m³),mass concentration of particles derived from Lorenz-Mie calculation of OPC scattering (μg/m³),mass concentration of particles derived from Lorenz-Mie calculation of OPC scattering (μg/m³)
DateTimeUTC,F1_M11,P_M11,Q1_M11,Q2_M11,T1_M11,T2_M11,T3_M11,T4_M11,T5_M11,U1_M11,ZSPAN_M11,X0_M11,X2_M11,X1_M11
2024-01-11 13:00:00,SystemResetWarning,0810.1,5.00,000.00,018.7,017.6,000.0,027.3,020.0,10.2,0000.0,0008.65,0003.96,0003.70
2024-01-11 13:01:00,SystemResetWarning,0810.1,5.00,000.00,018.7,017.5,000.0,027.3,020.0,10.2,0000.0,0007.65,0003.91,0003.68
2024-01-11 13:02:00,SystemResetWarning,0810.1,5.00,000.00,018.7,017.5,000.0,027.3,020.0,10.3,0000.0,0007.46,0003.90,0003.66
2024-01-11 13:03:00,SystemResetWarning,0810.1,5.00,000.00,018.7,017.4,000.0,027.2,020.0,10.3,0000.0,0007.43,0003.89,0003.65
2024-01-11 13:04:00,SystemResetWarning,0810.1,5.00,000.00,018.7,017.4,000.0,027.3,020.0,10.3,0000.0,0006.83,0003.92,0003.65
2024-01-11 13:05:00,SystemResetWarning,0810.0,5.00,000.00,018.7,017.4,000.0,027.3,020.1,10.3,0000.0,0006.05,0003.93,0003.66
2024-01-11 13:06:00,SystemResetWarning,0810.0,5.01,000.00,018.8,018.0,000.0,027.2,020.5,10.3,0000.0,0006.18,0003.95,0003.67
2024-01-11 13:07:00,SystemResetWarning,0810.0,5.00,000.00,018.9,018.7,000.0,027.2,020.8,10.2,0000.0,0006.25,0003.96,0003.68
2024-01-11 13:08:00,SystemResetWarning,0810.0,5.00,000.00,019.0,018.8,000.0,027.2,020.5,10.2,0000.0,0006.50,0004.02,0003.70
2024-01-11 13:09:00,SystemResetWarning,0810.0,4.99,000.00,019.0,018.8,000.0,027.2,020.3,10.2,0000.0,0007.50,0004.08,0003.72
2024-01-11 13:10:00,SystemResetWarning,0810.1,4.99,000.00,019.0,018.7,000.0,027.2,020.1,10.3,0000.0,0007.75,0004.12,0003.72
2024-01-11 13:11:00,SystemResetWarning,0810.1,5.01,000.00,018.9,018.5,000.0,027.2,020.1,10.3,0000.0,0007.89,0004.15,0003.73
2024-01-11 13:12:00,SystemResetWarning,0810.1,5.01,000.00,018.9,018.4,000.0,027.2,020.0,10.3,0000.0,0008.14,0004.18,0003.75
2024-01-11 13:13:00,SystemResetWarning,0810.1,5.00,000.00,018.9,018.2,000.0,027.2,020.0,10.3,0000.0,0008.26,0004.21,0003.77
2024-01-11 13:14:00,SystemResetWarning,0810.2,5.00,000.00,018.8,018.1,000.0,027.2,020.0,10.3,0000.0,0008.30,0004.24,0003.79
2024-01-11 13:15:00,SystemResetWarning,0810.2,5.00,000.00,018.8,018.0,000.0,027.2,020.0,10.3,0000.0,0008.51,0004.27,0003.81
2024-01-11 13:16:00,SystemResetWarning,0810.3,4.99,000.00,018.8,017.9,000.0,027.2,020.0,10.3,0000.0,0008.61,0004.28,0003.82
2024-01-11 13:17:00,SystemResetWarning,0810.3,5.00,000.00,018.8,017.8,000.0,027.2,020.0,10.4,0000.0,0008.56,0004.28,0003.84
2024-01-11 13:18:00,SystemResetWarning,0810.4,5.00,000.00,018.8,017.7,000.0,027.2,020.0,10.4,0000.0,0008.58,0004.31,0003.85
2024-01-11 13:19:00,SystemResetWarning,0810.4,5.01,000.00,018.8,017.7,000.0,027.2,020.0,10.4,0000.0,0008.63,0004.27,0003.86
2024-01-11 13:20:00,SystemResetWarning,0810.4,5.00,000.00,018.8,017.6,000.0,027.3,020.0,10.4,0000.0,0008.59,0004.24,0003.87
2024-01-11 13:21:00,SystemResetWarning,0810.4,5.00,000.00,018.7,017.6,000.0,027.3,020.0,10.4,0000.0,0008.55,0004.27,0003.90
2024-01-11 13:22:00,SystemResetWarning,0810.4,5.00,000.00,018.7,017.6,000.0,027.3,020.0,10.4,0000.0,0008.46,0004.27,0003.92
2024-01-11 13:23:00,SystemResetWarning,0810.5,5.00,000.00,018.7,017.6,000.0,027.3,020.0,10.5,0000.0,0008.26,0004.30,0003.93
2024-01-11 13:24:00,SystemResetWarning,0810.5,5.00,000.00,018.7,017.6,000.0,027.3,020.0,10.5,0000.0,0008.30,0004.32,0003.96
2024-01-11 13:25:00,SystemResetWarning,0810.5,5.00,000.00,018.7,017.5,000.0,027.3,020.0,10.6,0000.0,0008.35,0004.34,0003.97
2024-01-11 13:26:00,SystemResetWarning,0810.6,5.00,000.00,018.7,017.5,000.0,027.3,020.0,10.6,0000.0,0008.24,0004.34,0003.99
2024-01-11 13:27:00,SystemResetWarning,0810.5,5.00,000.00,018.7,017.5,000.0,027.3,020.0,10.6,0000.0,0008.11,0004.35,0004.01
2024-01-11 13:28:00,SystemResetWarning,0810.6,5.01,000.00,018.8,017.8,000.0,027.2,020.3,10.6,0000.0,0008.23,0004.38,0004.02
2024-01-11 13:29:00,SystemResetWarning,0810.6,5.00,000.00,018.9,018.5,000.0,027.2,020.7,10.6,0000.0,0008.37,0004.44,0004.05
2024-01-11 13:30:00,SystemResetWarning,0810.6,5.00,000.00,019.0,018.8,000.0,027.2,020.6,10.6,0000.0,0008.35,0004.48,0004.08
2024-01-11 13:31:00,SystemResetWarning,0810.6,4.98,000.00,019.0,018.7,000.0,027.2,020.1,10.6,0000.0,0007.92,0004.52,0004.09
2024-01-11 13:32:00,SystemResetWarning,0810.6,5.01,000.00,018.9,018.5,000.0,027.2,020.0,10.6,0000.0,0007.65,0004.51,0004.09
2024-01-11 13:33:00,SystemResetWarning,0810.6,5.00,000.00,018.9,018.3,000.0,027.2,020.0,10.6,0000.0,0007.69,0004.51,0004.09
2024-01-11 13:34:00,SystemResetWarning,0810.6,5.00,000.00,018.9,018.1,000.0,027.3,020.0,10.6,0000.0,0007.75,0004.52,0004.09
2024-01-11 13:35:00,SystemResetWarning,0810.6,5.00,000.00,018.8,018.0,000.0,027.3,020.0,10.6,0000.0,0007.73,0004.53,0004.08
2024-01-11 13:36:00,SystemResetWarning,0810.6,5.00,000.00,018.8,018.0,000.0,027.3,020.0,10.6,0000.0,0007.62,0004.51,0004.07
2024-01-11 13:37:00,SystemResetWarning,0810.6,5.00,000.00,018.8,018.0,000.0,027.3,020.0,10.6,0000.0,0007.56,0004.50,0004.05
2024-01-11 13:38:00,SystemResetWarning,0810.7,5.00,000.00,018.8,017.9,000.0,027.3,020.0,10.6,0000.0,0007.42,0004.45,0004.02
2024-01-11 13:39:00,SystemResetWarning,0810.6,5.00,000.00,018.8,017.8,000.0,027.2,020.0,10.6,0000.0,0007.34,0004.42,0004.01
2024-01-11 13:40:00,SystemResetWarning,0810.7,5.00,000.00,018.8,017.8,000.0,027.2,020.0,10.6,0000.0,0007.28,0004.38,0003.99
2024-01-11 13:41:00,SystemResetWarning,0810.7,5.00,000.00,018.8,017.8,000.0,027.2,020.0,10.6,0000.0,0007.11,0004.33,0003.96
2024-01-11 13:42:00,SystemResetWarning,0810.7,5.00,000.00,018.8,017.8,000.0,027.2,020.0,10.6,0000.0,0007.03,0004.28,0003.92
2024-01-11 13:43:00,SystemResetWarning,0810.7,5.00,000.00,018.7,017.8,000.0,027.2,020.0,10.6,0000.0,0006.94,0004.23,0003.87
2024-01-11 13:44:00,SystemResetWarning,0810.7,5.01,000.00,018.7,017.8,000.0,027.2,020.0,10.6,0000.0,0006.96,0004.20,0003.83
2024-01-11 13:45:00,SystemResetWarning,0810.7,5.00,000.00,018.7,017.8,000.0,027.2,020.0,10.6,0000.0,0007.26,0004.15,0003.78
2024-01-11 13:46:00,SystemResetWarning,0810.7,5.00,000.00,018.7,017.8,000.0,027.2,020.0,10.6,0000.0,0007.07,0004.08,0003.73
2024-01-11 13:47:00,SystemResetWarning,0810.7,5.00,000.00,018.7,017.8,000.0,027.2,020.0,10.5,0000.0,0007.06,0004.03,0003.70
2024-01-11 13:48:00,SystemResetWarning,0810.8,5.00,000.00,018.7,017.8,000.0,027.2,020.0,10.5,0000.0,0007.34,0004.03,0003.69
2024-01-11 13:49:00,SystemResetWarning,0810.8,5.00,000.00,018.7,017.7,000.0,027.2,020.0,10.5,0000.0,0007.37,0004.05,0003.67
2024-01-11 13:50:00,SystemResetWarning,0810.8,5.00,000.00,018.7,017.9,000.0,027.2,020.1,10.5,0000.0,0007.31,0004.02,0003.65
2024-01-11 13:51:00,SystemResetWarning,0810.9,5.00,000.00,018.8,018.5,000.0,027.2,020.6,10.4,0000.0,0007.19,0003.98,0003.61
2024-01-11 13:52:00,SystemResetWarning,0811.0,4.99,000.00,019.0,019.1,000.0,027.2,020.8,10.3,0000.0,0007.42,0003.95,0003.58
2024-01-11 13:53:00,SystemResetWarning,0810.9,4.99,000.00,019.0,019.1,000.0,027.2,020.6,10.3,0000.0,0007.53,0003.92,0003.55
2024-01-11 13:54:00,SystemResetWarning,0810.9,5.00,000.00,019.0,018.9,000.0,027.2,020.3,10.3,0000.0,0007.52,0003.90,0003.53
2024-01-11 13:55:00,SystemResetWarning,0810.9,5.00,000.00,019.0,018.7,000.0,027.2,020.2,10.3,0000.0,0007.39,0003.86,0003.50
2024-01-11 13:56:00,SystemResetWarning,0810.9,5.00,000.00,019.0,018.6,000.0,027.2,020.1,10.3,0000.0,0006.89,0003.83,0003.49
2024-01-11 13:57:00,SystemResetWarning,0810.9,5.00,000.00,018.9,018.5,000.0,027.2,020.0,10.3,0000.0,0006.93,0003.81,0003.46
2024-01-11 13:58:00,SystemResetWarning,0810.9,4.99,000.00,018.9,018.4,000.0,027.2,020.0,10.3,0000.0,0006.90,0003.78,0003.42
2024-01-11 13:59:00,SystemResetWarning,0810.9,5.00,000.00,018.9,018.3,000.0,027.2,020.0,10.4,0000.0,0006.38,0003.69,0003.36
